KC5JIM Weather Reports


Display with metric or nautical units.
time (UTC)temp
F
wind
direction
speed
MPH
gust
MPH
rain 1hr
in
rain 24hr
in
rain mn
in
humidity
%
barometer
mb
20260831104749 83 120 2.0 6.0 0.00 0.00 0.00 49 1007.6
20260831104245 83 161 2.0 5.0 0.00 0.00 0.00 48 1007.2
20260831103741 83 337 2.0 7.0 0.00 0.00 0.00 48 1007.0
20260831103237 83 327 2.0 2.0 0.00 0.00 0.00 48 1007.2
20260831102957 83 328 0.0 3.0 0.00 0.00 0.00 48 1007.3
20260831102229 83 295 0.0 3.0 0.00 0.00 0.00 48 1007.4
20260831101725 82 275 2.0 4.0 0.00 0.00 0.00 50 1007.4
20260831101221 81 232 4.0 7.0 0.00 0.00 0.00 51 1007.6
20260831100717 81 227 2.0 6.0 0.00 0.00 0.00 53 1007.5
20260831100214 81 255 2.0 5.0 0.00 0.00 0.00 53 1007.3
20260831095710 81 279 1.0 4.0 0.00 0.00 0.00 53 1007.4
20260831095656 81 178 2.0 3.0 0.00 0.00 0.00 52 1007.2
20260831094701 81 195 2.0 2.0 0.00 0.00 0.00 53 1007.3
20260831094157 81 95 0.0 2.0 0.00 0.00 0.00 53 1007.4
20260831093653 82 204 4.0 4.0 0.00 0.00 0.00 51 1007.4
20260831093149 83 293 0.0 2.0 0.00 0.00 0.00 50 1007.1
20260831092645 82 67 4.0 4.0 0.00 0.00 0.00 51 1007.2
20260831092141 82 32 0.0 1.0 0.00 0.00 0.00 51 1007.1
20260831091637 82 322 0.0 0.0 0.00 0.00 0.00 51 1007.0
20260831091355 82 322 1.0 3.0 0.00 0.00 0.00 50 1007.4
20260831090629 82 326 1.0 2.0 0.00 0.00 0.00 50 1007.4
20260831090126 82 145 0.0 1.0 0.00 0.00 0.00 51 1007.1
20260831085622 82 309 0.0 2.0 0.00 0.00 0.00 50 1007.1
20260831085118 82 217 0.0 1.0 0.00 0.00 0.00 50 1007.4
20260831084614 83 322 0.0 1.0 0.00 0.00 0.00 49 1007.4
20260831084110 83 331 2.0 3.0 0.00 0.00 0.00 49 1007.3
20260831083606 83 331 3.0 5.0 0.00 0.00 0.00 49 1007.6
20260831083102 83 325 1.0 5.0 0.00 0.00 0.00 49 1007.5
20260831082558 83 334 2.0 3.0 0.00 0.00 0.00 50 1007.6
20260831082054 82 345 4.0 6.0 0.00 0.00 0.00 50 1007.8
20260831081812 82 350 1.0 4.0 0.00 0.00 0.00 50 1007.8
20260831081310 82 321 0.0 2.0 0.00 0.00 0.00 50 1007.9
20260831080542 82 315 0.0 0.0 0.00 0.00 0.00 50 1008.0
20260831080038 82 280 1.0 3.0 0.00 0.00 0.00 50 1007.7
20260831075534 84 268 2.0 3.0 0.00 0.00 0.00 49 1007.8
20260831075030 85 268 2.0 2.0 0.00 0.00 0.00 47 1007.7
20260831074749 85 335 2.0 4.0 0.00 0.00 0.00 46 1007.5
20260831074022 86 327 2.0 3.0 0.00 0.00 0.00 46 1007.5
20260831073517 86 331 0.0 2.0 0.00 0.00 0.00 45 1007.7
20260831073237 86 13 2.0 2.0 0.00 0.00 0.00 45 1007.8
20260831072006 86 230 0.0 1.0 0.00 0.00 0.00 45 1007.6
20260831071502 86 38 0.0 2.0 0.00 0.00 0.00 44 1007.6
20260831070958 86 13 1.0 3.0 0.00 0.00 0.00 44 1007.6
20260831070453 86 347 3.0 4.0 0.00 0.00 0.00 44 1007.7
20260831065950 87 44 0.0 1.0 0.00 0.00 0.00 44 1007.9
20260831065446 87 44 0.0 1.0 0.00 0.00 0.00 44 1007.7
20260831064941 87 37 0.0 3.0 0.00 0.00 0.00 44 1007.6
20260831064437 87 53 2.0 3.0 0.00 0.00 0.00 43 1007.9
20260831063938 87 67 1.0 3.0 0.00 0.00 0.00 43 1007.7
20260831063430 87 329 0.0 3.0 0.00 0.00 0.00 43 1007.9
20260831062925 87 51 1.0 4.0 0.00 0.00 0.00 43 1007.8
20260831062645 87 68 4.0 6.0 0.00 0.00 0.00 43 1008.1
20260831061917 87 58 4.0 7.0 0.00 0.00 0.00 43 1007.8
20260831061414 87 101 3.0 5.0 0.00 0.00 0.00 43 1007.8
20260831060909 87 80 3.0 5.0 0.00 0.00 0.00 43 1008.1
20260831060406 87 68 5.0 5.0 0.00 0.00 0.00 43 1008.3
20260831055901 87 118 3.0 5.0 0.00 0.00 0.00 43 1008.0
20260831055358 87 161 1.0 2.0 0.00 0.00 0.00 43 1008.0
20260831054854 87 164 0.0 1.0 0.00 0.00 0.00 43 1008.0
20260831054350 87 148 3.0 4.0 0.00 0.00 0.00 43 1008.0
20260831053846 87 105 1.0 5.0 0.00 0.00 0.00 43 1008.1
20260831053342 88 62 0.0 3.0 0.00 0.00 0.00 42 1008.1
20260831052838 88 92 2.0 4.0 0.00 0.00 0.00 42 1007.9
20260831052334 88 78 2.0 5.0 0.00 0.00 0.00 42 1008.1
20260831051830 88 94 2.0 6.0 0.00 0.00 0.00 42 1008.2
20260831051326 88 89 0.0 4.0 0.00 0.00 0.00 42 1007.9
20260831050822 88 69 0.0 6.0 0.00 0.00 0.00 42 1007.8
20260831050318 88 70 2.0 5.0 0.00 0.00 0.00 42 1007.7
20260831045814 88 127 2.0 4.0 0.00 0.00 0.00 41 1007.5
20260831045310 88 113 4.0 9.0 0.00 0.00 0.00 41 1007.6
20260831044805 88 142 2.0 7.0 0.00 0.00 0.00 41 1007.6
20260831044752 88 132 6.0 9.0 0.00 0.00 0.00 41 1007.7
20260831043758 89 105 3.0 7.0 0.00 0.00 0.00 41 1007.8
20260831043254 89 137 6.0 17.0 0.00 0.00 0.00 41 1007.8
20260831042749 89 151 2.0 15.0 0.00 0.00 0.00 41 1007.7
20260831042246 89 123 7.0 13.0 0.00 0.00 0.00 41 1007.7
20260831041742 89 183 6.0 15.0 0.00 0.00 0.00 40 1007.8
20260831041237 89 161 8.0 15.0 0.00 0.00 0.00 40 1007.5
20260831040733 89 146 7.0 12.0 0.00 0.00 0.00 40 1007.6
20260831040229 89 129 4.0 11.0 0.00 0.00 0.00 40 1007.5
20260831035725 89 139 6.0 14.0 0.00 0.00 0.00 40 1007.5
20260831035222 89 154 7.0 18.0 0.00 0.00 0.00 40 1007.4
20260831034717 89 160 11.0 20.0 0.00 0.00 0.00 40 1007.3
20260831034213 89 162 5.0 19.0 0.00 0.00 0.00 40 1007.3
20260831033709 89 157 10.0 23.0 0.00 0.00 0.00 39 1007.0
20260831032701 90 138 13.0 19.0 0.00 0.00 0.00 39 1007.1
20260831032158 90 123 9.0 21.0 0.00 0.00 0.00 38 1007.0
20260831031654 90 163 14.0 21.0 0.00 0.00 0.00 38 1006.8
20260831031150 91 151 9.0 17.0 0.00 0.00 0.00 38 1006.5
20260831031136 91 156 17.0 25.0 0.00 0.00 0.00 38 1006.6
20260831030142 92 162 14.0 25.0 0.00 0.00 0.00 37 1006.3
20260831025637 94 154 13.0 21.0 0.00 0.00 0.00 35 1006.0
20260831025356 94 163 8.0 14.0 0.00 0.00 0.00 34 1005.9
20260831024629 94 156 9.0 11.0 0.00 0.00 0.00 34 1005.6
20260831024126 94 172 10.0 12.0 0.00 0.00 0.00 33 1005.3
20260831023621 94 149 2.0 8.0 0.00 0.00 0.00 33 1005.4
20260831023117 94 131 7.0 8.0 0.00 0.00 0.00 33 1005.2
20260831022613 94 167 5.0 11.0 0.00 0.00 0.00 33 1005.2
20260831022602 94 152 4.0 9.0 0.00 0.00 0.00 33 1005.2
20260831021605 94 130 3.0 9.0 0.00 0.00 0.00 32 1005.1
20260831021101 95 172 4.0 12.0 0.00 0.00 0.00 32 1004.6
20260831020557 95 141 8.0 9.0 0.00 0.00 0.00 32 1005.0
20260831020053 95 149 4.0 11.0 0.00 0.00 0.00 32 1004.9
20260831015549 95 102 4.0 12.0 0.00 0.00 0.00 32 1004.8
20260831015046 95 139 4.0 9.0 0.00 0.00 0.00 32 1004.8
20260831014542 95 134 4.0 9.0 0.00 0.00 0.00 32 1004.8
20260831014037 95 175 3.0 8.0 0.00 0.00 0.00 32 1004.7
20260831013534 95 103 3.0 9.0 0.00 0.00 0.00 31 1004.6
20260831013029 95 140 4.0 8.0 0.00 0.00 0.00 31 1004.7
20260831012525 95 145 6.0 8.0 0.00 0.00 0.00 31 1004.4
20260831012021 96 169 5.0 9.0 0.00 0.00 0.00 31 1004.4
20260831011517 96 139 3.0 8.0 0.00 0.00 0.00 31 1004.5
20260831011013 96 147 4.0 14.0 0.00 0.00 0.00 31 1004.2
20260831010509 96 143 3.0 8.0 0.00 0.00 0.00 31 1004.4
20260831010005 96 143 8.0 10.0 0.00 0.00 0.00 31 1004.2
20260831005502 96 149 4.0 8.0 0.00 0.00 0.00 31 1004.4
20260831004958 97 125 10.0 14.0 0.00 0.00 0.00 31 1004.3
20260831004717 97 156 7.0 12.0 0.00 0.00 0.00 30 1004.2
20260831004210 97 135 3.0 6.0 0.00 0.00 0.00 30 1004.5
20260831003446 97 122 2.0 10.0 0.00 0.00 0.00 30 1004.2
20260831002942 98 131 4.0 10.0 0.00 0.00 0.00 29 1004.2
20260831002438 97 151 3.0 10.0 0.00 0.00 0.00 30 1004.3
20260831001934 98 84 7.0 9.0 0.00 0.00 0.00 29 1004.3
20260831001650 97 139 7.0 10.0 0.00 0.00 0.00 29 1004.4
20260831001417 97 124 2.0 7.0 0.00 0.00 0.00 29 1004.1
20260831000422 97 122 9.0 13.0 0.00 0.00 0.00 29 1004.1
20260831000138 97 170 6.0 14.0 0.00 0.00 0.00 30 1004.4
20260830235414 97 201 5.0 13.0 0.00 0.00 0.00 30 1004.2
20260830234910 98 195 9.0 10.0 0.00 0.00 0.00 30 1004.2
20260830234406 97 35 3.0 9.0 0.00 0.00 0.00 30 1004.1
20260830233902 97 144 6.0 15.0 0.00 0.00 0.00 30 1004.2
20260830233358 97 164 4.0 8.0 0.00 0.00 0.00 29 1004.3
20260830232854 97 57 2.0 10.0 0.00 0.00 0.00 29 1004.4
20260830232350 97 141 4.0 9.0 0.00 0.00 0.00 29 1004.3
20260830231846 98 107 6.0 12.0 0.00 0.00 0.00 29 1004.6
20260830231604 97 136 3.0 13.0 0.00 0.00 0.00 30 1004.6
20260830230839 98 166 13.0 14.0 0.00 0.00 0.00 29 1004.5
20260830230334 97 201 5.0 10.0 0.00 0.00 0.00 30 1004.4
20260830225830 97 211 2.0 5.0 0.00 0.00 0.00 30 1004.7
20260830225325 96 8 3.0 7.0 0.00 0.00 0.00 31 1004.8
20260830224821 96 73 3.0 9.0 0.00 0.00 0.00 30 1005.0
20260830224317 97 71 8.0 14.0 0.00 0.00 0.00 30 1005.2
20260830223813 97 84 7.0 16.0 0.00 0.00 0.00 31 1005.0
20260830223309 98 141 6.0 15.0 0.00 0.00 0.00 31 1005.2
20260830222805 98 180 2.0 8.0 0.00 0.00 0.00 30 1005.5
20260830222301 96 259 3.0 4.0 0.00 0.00 0.00 29 1005.5
20260830221757 96 128 3.0 10.0 0.00 0.00 0.00 30 1005.8
20260830221253 96 114 3.0 12.0 0.00 0.00 0.00 29 1005.8
20260830220749 98 98 7.0 14.0 0.00 0.00 0.00 28 1005.7
20260830220246 97 100 7.0 13.0 0.00 0.00 0.00 29 1005.8
20260830215742 97 156 3.0 12.0 0.00 0.00 0.00 28 1005.9
20260830215238 98 133 7.0 12.0 0.00 0.00 0.00 29 1006.0
20260830214734 96 67 4.0 8.0 0.00 0.00 0.00 29 1006.1
20260830214720 97 73 6.0 10.0 0.00 0.00 0.00 29 1006.1
20260830213726 96 91 5.0 14.0 0.00 0.00 0.00 29 1006.2
20260830213222 97 149 5.0 9.0 0.00 0.00 0.00 28 1006.2
20260830212718 96 181 3.0 8.0 0.00 0.00 0.00 29 1006.3
20260830212214 97 45 5.0 8.0 0.00 0.00 0.00 29 1006.4
20260830211710 95 281 2.0 8.0 0.00 0.00 0.00 30 1006.5
20260830211206 97 100 5.0 14.0 0.00 0.00 0.00 29 1006.8
20260830210702 95 38 2.0 5.0 0.00 0.00 0.00 30 1006.6
20260830210157 96 142 4.0 8.0 0.00 0.00 0.00 30 1006.9
20260830205653 94 78 2.0 4.0 0.00 0.00 0.00 31 1007.2
20260830205149 96 267 4.0 10.0 0.00 0.00 0.00 31 1007.1
20260830204908 95 238 7.0 8.0 0.00 0.00 0.00 32 1007.5
20260830204142 95 176 2.0 11.0 0.00 0.00 0.00 31 1007.6
20260830203638 95 133 3.0 7.0 0.00 0.00 0.00 30 1007.6
20260830203356 95 70 8.0 12.0 0.00 0.00 0.00 31 1007.6
20260830202125 95 74 13.0 15.0 0.00 0.00 0.00 31 1007.8
20260830201621 93 318 4.0 7.0 0.00 0.00 0.00 33 1007.9
20260830201117 92 317 3.0 9.0 0.00 0.00 0.00 33 1008.3
20260830200836 94 48 4.0 6.0 0.00 0.00 0.00 32 1008.3
20260830200110 94 101 7.0 9.0 0.00 0.00 0.00 32 1008.4
20260830195605 94 88 7.0 11.0 0.00 0.00 0.00 33 1008.5
20260830195101 93 200 4.0 10.0 0.00 0.00 0.00 33 1008.3
20260830194557 94 191 4.0 8.0 0.00 0.00 0.00 33 1008.4
20260830194053 94 55 3.0 12.0 0.00 0.00 0.00 33 1008.6
20260830193549 92 169 3.0 11.0 0.00 0.00 0.00 34 1008.5
20260830193045 93 116 5.0 13.0 0.00 0.00 0.00 34 1008.8
20260830192541 92 160 4.0 10.0 0.00 0.00 0.00 34 1008.9
20260830192037 92 156 5.0 13.0 0.00 0.00 0.00 34 1009.1
20260830191533 93 114 6.0 13.0 0.00 0.00 0.00 33 1008.9
20260830191029 94 101 9.0 13.0 0.00 0.00 0.00 33 1009.0
20260830190525 93 193 6.0 10.0 0.00 0.00 0.00 34 1008.8
20260830190243 93 119 5.0 11.0 0.00 0.00 0.00 34 1009.3
20260830185518 93 45 6.0 10.0 0.00 0.00 0.00 33 1009.3
20260830185014 93 140 2.0 10.0 0.00 0.00 0.00 34 1009.4
20260830184732 92 103 4.0 6.0 0.00 0.00 0.00 34 1009.4
20260830184229 91 101 2.0 4.0 0.00 0.00 0.00 34 1009.8
20260830183722 92 136 6.0 9.0 0.00 0.00 0.00 32 1009.3
20260830182958 90 166 3.0 6.0 0.00 0.00 0.00 34 1009.8
20260830182454 92 0 2.0 13.0 0.00 0.00 0.00 35 1010.0
20260830181950 91 263 2.0 3.0 0.00 0.00 0.00 36 1010.2
20260830181446 91 59 3.0 7.0 0.00 0.00 0.00 36 1010.0
20260830180942 91 2 1.0 7.0 0.00 0.00 0.00 37 1010.2
20260830180438 89 96 1.0 4.0 0.00 0.00 0.00 38 1010.6
20260830175934 89 123 3.0 8.0 0.00 0.00 0.00 38 1010.4
20260830175429 89 80 8.0 10.0 0.00 0.00 0.00 39 1010.5
20260830174925 88 341 6.0 8.0 0.00 0.00 0.00 40 1010.6
20260830174421 89 84 5.0 12.0 0.00 0.00 0.00 40 1010.3
20260830173917 87 28 2.0 10.0 0.00 0.00 0.00 42 1010.5
20260830173637 88 76 12.0 12.0 0.00 0.00 0.00 43 1010.4
20260830173359 88 87 6.0 8.0 0.00 0.00 0.00 42 1010.7
20260830172405 87 81 5.0 11.0 0.00 0.00 0.00 42 1010.7
20260830171901 87 97 4.0 8.0 0.00 0.00 0.00 42 1010.9
20260830171357 87 41 2.0 9.0 0.00 0.00 0.00 41 1010.6
20260830171116 88 34 3.0 9.0 0.00 0.00 0.00 41 1010.6
20260830170349 88 102 4.0 10.0 0.00 0.00 0.00 42 1010.5
20260830165846 88 74 8.0 8.0 0.00 0.00 0.00 41 1010.7
20260830165342 87 66 3.0 8.0 0.00 0.00 0.00 41 1010.6
20260830164838 87 35 4.0 10.0 0.00 0.00 0.00 41 1010.7
20260830164334 86 45 4.0 9.0 0.00 0.00 0.00 43 1010.8
20260830163830 86 31 3.0 13.0 0.00 0.00 0.00 43 1010.8
20260830163326 85 349 3.0 8.0 0.00 0.00 0.00 44 1010.9
20260830162822 86 354 3.0 10.0 0.00 0.00 0.00 43 1011.1
20260830162542 85 96 6.0 7.0 0.00 0.00 0.00 43 1010.8
20260830161814 86 69 3.0 6.0 0.00 0.00 0.00 43 1010.8
20260830161310 86 20 4.0 6.0 0.00 0.00 0.00 43 1010.9
20260830161026 85 51 4.0 8.0 0.00 0.00 0.00 45 1011.0
20260830160302 84 35 0.0 6.0 0.00 0.00 0.00 45 1011.1
20260830155758 84 305 2.0 7.0 0.00 0.00 0.00 45 1011.2
20260830155514 86 49 1.0 6.0 0.00 0.00 0.00 45 1010.9
20260830154750 84 88 2.0 4.0 0.00 0.00 0.00 45 1011.1
20260830154246 84 9 3.0 7.0 0.00 0.00 0.00 46 1011.2
20260830153742 85 18 1.0 8.0 0.00 0.00 0.00 48 1011.0
20260830153238 84 326 3.0 7.0 0.00 0.00 0.00 47 1010.9
20260830152734 84 344 2.0 5.0 0.00 0.00 0.00 47 1010.9
20260830152230 84 30 3.0 7.0 0.00 0.00 0.00 47 1010.8
20260830151726 84 66 4.0 7.0 0.00 0.00 0.00 47 1010.7
20260830151222 83 347 8.0 8.0 0.00 0.00 0.00 48 1011.0
20260830150718 82 331 2.0 4.0 0.00 0.00 0.00 50 1011.0
20260830150214 81 45 2.0 2.0 0.00 0.00 0.00 52 1011.2
20260830145709 82 352 1.0 4.0 0.00 0.00 0.00 53 1011.3
20260830145205 81 24 2.0 5.0 0.00 0.00 0.00 53 1011.1
20260830144701 82 358 2.0 3.0 0.00 0.00 0.00 53 1011.2
20260830144157 81 322 0.0 3.0 0.00 0.00 0.00 54 1011.2
20260830143917 81 139 0.0 2.0 0.00 0.00 0.00 54 1011.2
20260830143410 81 241 0.0 2.0 0.00 0.00 0.00 55 1011.3
20260830142645 80 135 0.0 2.0 0.00 0.00 0.00 54 1011.1
20260830142141 80 209 0.0 3.0 0.00 0.00 0.00 55 1011.4
20260830141637 81 198 3.0 4.0 0.00 0.00 0.00 54 1011.4
20260830141357 81 234 0.0 3.0 0.00 0.00 0.00 53 1011.3
20260830140629 81 130 0.0 2.0 0.00 0.00 0.00 53 1011.1
20260830140126 81 175 2.0 3.0 0.00 0.00 0.00 53 1011.2
20260830135621 82 122 0.0 2.0 0.00 0.00 0.00 52 1011.3
20260830135117 81 156 2.0 3.0 0.00 0.00 0.00 52 1011.3
20260830134613 81 135 1.0 3.0 0.00 0.00 0.00 52 1011.2
20260830134109 82 170 2.0 3.0 0.00 0.00 0.00 52 1011.1
20260830133605 82 153 2.0 4.0 0.00 0.00 0.00 51 1011.1
20260830133101 82 160 3.0 4.0 0.00 0.00 0.00 50 1011.3
20260830132557 82 163 1.0 3.0 0.00 0.00 0.00 50 1011.2
20260830132053 82 61 2.0 6.0 0.00 0.00 0.00 49 1011.0
20260830131549 82 20 2.0 6.0 0.00 0.00 0.00 50 1010.8
20260830131536 82 9 4.0 6.0 0.00 0.00 0.00 50 1010.9
20260830130541 82 8 1.0 5.0 0.00 0.00 0.00 51 1010.8
20260830130037 82 16 1.0 6.0 0.00 0.00 0.00 50 1010.7
20260830125533 82 106 0.0 3.0 0.00 0.00 0.00 50 1010.4
20260830125029 82 44 2.0 4.0 0.00 0.00 0.00 50 1010.2
20260830124525 82 30 0.0 8.0 0.00 0.00 0.00 50 1010.1
20260830124244 83 356 2.0 5.0 0.00 0.00 0.00 50 1010.3
20260830123517 83 36 3.0 5.0 0.00 0.00 0.00 50 1010.5
20260830123234 83 1 2.0 5.0 0.00 0.00 0.00 49 1010.3
20260830122509 83 65 5.0 17.0 0.00 0.00 0.00 49 1010.1
20260830122225 83 26 1.0 8.0 0.00 0.00 0.00 49 1010.1
20260830121501 83 108 6.0 8.0 0.00 0.00 0.00 48 1010.2
20260830121221 83 135 0.0 4.0 0.00 0.00 0.00 48 1010.2
20260830120453 84 11 3.0 8.0 0.00 0.00 0.00 47 1009.8
20260830115949 83 336 2.0 5.0 0.00 0.00 0.00 47 1009.6
20260830115939 83 356 3.0 11.0 0.00 0.00 0.00 47 1009.3
20260830114941 83 20 5.0 15.0 0.00 0.00 0.00 47 1009.2
20260830114437 83 42 3.0 13.0 0.00 0.00 0.00 47 1009.2
20260830113933 83 39 3.0 13.0 0.00 0.00 0.00 47 1009.2
20260830113920 83 41 11.0 11.0 0.00 0.00 0.00 47 1009.6
20260830112925 84 62 4.0 10.0 0.00 0.00 0.00 46 1009.2
20260830112421 84 28 3.0 11.0 0.00 0.00 0.00 45 1009.3
20260830111917 84 306 4.0 9.0 0.00 0.00 0.00 44 1009.4
20260830111413 85 357 7.0 14.0 0.00 0.00 0.00 44 1009.5
20260830110910 85 32 3.0 7.0 0.00 0.00 0.00 43 1009.6
20260830110405 85 347 6.0 10.0 0.00 0.00 0.00 43 1009.3
20260830110121 85 37 2.0 10.0 0.00 0.00 0.00 43 1009.3
20260830105619 85 0 3.0 6.0 0.00 0.00 0.00 43 1008.8